Location: Lixville
(37.5770°N, 89.9118°W)
Time: 09:13:02
(UTC+00:00)

Tiros 1 despin weight - All Passes

Search period start: 07 November 2024 00:00
Search period end: 17 November 2024 00:00
Orbit: 571 x 611 km, 48.2° (Epoch: 06 November)

Date Brightness Start Highest point End Pass type
(mag) Time Alt. Az. Time Alt. Az. Time Alt. Az.
07 Nov - 11:32:16 10° SW 11:36:35 54° SE 11:40:51 10° ENE visible
07 Nov - 13:13:38 10° W 13:17:40 35° NNW 13:21:41 10° NE daylight
07 Nov - 14:56:18 10° NW 14:59:32 20° N 15:02:45 10° NE daylight
07 Nov - 16:37:44 10° NW 16:41:30 28° NNE 16:45:14 10° ENE daylight
07 Nov - 18:18:29 10° WNW 18:22:47 79° SW 18:27:03 10° SE daylight
07 Nov - 20:01:31 10° WSW 20:03:08 12° SW 20:04:44 10° SSW daylight
08 Nov - 10:01:13 10° SSE 10:03:47 15° SE 10:06:21 10° E visible
08 Nov - 11:39:50 10° SW 11:44:16 89° NNW 11:48:40 10° NE visible
08 Nov - 13:21:53 10° WNW 13:25:38 27° NNW 13:29:21 10° NE daylight
08 Nov - 15:04:22 10° NW 15:07:38 20° N 15:10:51 10° NE daylight
08 Nov - 16:45:24 10° NW 16:49:26 37° NNE 16:53:27 10° E daylight
08 Nov - 18:26:19 10° WNW 18:30:26 45° SW 18:34:31 10° SSE daylight
09 Nov - 10:07:32 10° SSW 10:11:16 27° SE 10:14:59 10° ENE visible
09 Nov - 11:47:39 10° WSW 11:52:01 56° NNW 11:56:20 10° NE visible
09 Nov - 13:30:09 10° WNW 13:33:38 22° N 13:37:05 10° NE daylight
09 Nov - 15:12:14 10° NW 15:15:40 22° N 15:19:03 10° ENE daylight
09 Nov - 16:53:01 10° NW 16:57:16 56° NNE 17:01:29 10° ESE daylight
09 Nov - 18:34:25 10° WNW 18:37:59 25° SW 18:41:31 10° S daylight
10 Nov - 10:14:32 10° SSW 10:18:48 46° SE 10:23:02 10° ENE visible
10 Nov - 11:55:41 10° W 11:59:49 38° NNW 12:03:56 10° NE visible
10 Nov - 13:38:21 10° NW 13:41:39 20° N 13:44:55 10° NE daylight
10 Nov - 15:19:56 10° NW 15:23:38 26° NNE 15:27:18 10° ENE daylight
10 Nov - 17:00:39 10° NW 17:05:00 89° NE 17:09:17 10° SE daylight
10 Nov - 18:43:06 10° W 18:45:25 14° SW 18:47:43 10° SSW daylight
11 Nov - 08:43:59 10° SSE 08:46:00 13° SE 08:48:01 10° ESE visible
11 Nov - 10:21:57 10° SW 10:26:23 80° SE 10:30:48 10° ENE visible
11 Nov - 12:03:49 10° W 12:07:41 29° NNW 12:11:31 10° NE visible
11 Nov - 13:46:23 10° NW 13:49:39 20° N 13:52:53 10° NE daylight
11 Nov - 15:27:31 10° NW 15:31:31 34° NNE 15:35:28 10° E daylight
11 Nov - 17:08:23 10° WNW 17:12:36 53° SW 17:16:45 10° SE daylight
12 Nov - 08:49:51 10° S 08:53:23 23° SE 08:56:53 10° E visible
12 Nov - 10:29:37 10° WSW 10:34:02 64° NNW 10:38:26 10° NE visible
12 Nov - 12:12:00 10° WNW 12:15:35 23° NNW 12:19:08 10° NE daylight
12 Nov - 13:54:13 10° NW 13:57:37 21° N 14:00:59 10° ENE daylight
12 Nov - 15:35:04 10° NW 15:39:18 49° NNE 15:43:29 10° ESE daylight
12 Nov - 17:16:18 10° WNW 17:20:05 30° SW 17:23:49 10° SSE daylight
13 Nov - 08:56:38 10° SSW 09:00:48 40° SE 09:04:58 10° ENE visible
13 Nov - 10:37:30 10° W 10:41:45 42° NNW 10:45:57 10° NE visible
13 Nov - 12:20:09 10° NW 12:23:31 21° N 12:26:51 10° NE daylight
13 Nov - 14:01:53 10° NW 14:05:32 25° NNE 14:09:08 10° ENE daylight
13 Nov - 15:42:36 10° NW 15:46:58 78° NNE 15:51:16 10° ESE daylight
13 Nov - 17:24:38 10° W 17:27:27 17° SW 17:30:15 10° S daylight
14 Nov - 07:26:57 10° SE 07:27:59 11° SE 07:29:01 10° ESE night (unlit)
14 Nov - 09:03:51 10° SW 09:08:18 69° SE 09:12:42 10° ENE visible
14 Nov - 10:45:32 10° W 10:49:31 31° NNW 10:53:27 10° NE visible
14 Nov - 12:28:09 10° NW 12:31:27 20° N 12:34:42 10° NE daylight
14 Nov - 14:09:24 10° NW 14:13:21 32° NNE 14:17:15 10° E daylight
14 Nov - 15:50:13 10° WNW 15:54:31 63° SW 15:58:45 10° SE daylight
15 Nov - 07:32:02 10° S 07:35:16 20° SE 07:38:29 10° E night (unlit)
15 Nov - 09:11:23 10° WSW 09:15:50 73° NNW 09:20:17 10° NE visible
15 Nov - 10:53:38 10° WNW 10:57:19 25° NNW 11:00:58 10° NE visible
15 Nov - 12:35:57 10° NW 12:39:20 21° N 12:42:41 10° ENE daylight
15 Nov - 14:16:53 10° NW 14:21:05 44° NNE 14:25:14 10° E daylight
15 Nov - 15:57:58 10° WNW 16:01:57 35° SW 16:05:52 10° SSE daylight
16 Nov - 07:38:33 10° SSW 07:42:36 34° SE 07:46:37 10° ENE night (unlit)
16 Nov - 09:19:07 10° WSW 09:23:27 47° NNW 09:27:45 10° NE visible
16 Nov - 11:01:42 10° WNW 11:05:09 21° N 11:08:35 10° NE visible
16 Nov - 12:43:35 10° NW 12:47:11 24° NNE 12:50:45 10° ENE daylight
16 Nov - 14:24:20 10° NW 14:28:42 68° NNE 14:33:00 10° ESE daylight
16 Nov - 16:06:04 10° W 16:09:16 20° SW 16:12:27 10° S daylight
